FW0896 Weather Reports


Display with metric or nautical units.
time (UTC)temp
F
wind
direction
speed
MPH
gust
MPH
rain 1hr
in
rain 24hr
in
rain mn
in
humidity
%
barometer
mb
20260503213012 70 331 11.0 15.0 0.00 0.00 0.00 33 1006.0
20260503211513 69 323 11.0 18.0 0.00 0.00 0.00 35 1006.2
20260503210030 70 330 12.0 16.0 0.00 0.00 0.00 35 1006.4
20260503204510 70 320 9.0 15.0 0.00 0.00 0.00 35 1006.6
20260503203013 69 327 11.0 17.0 0.00 0.00 0.00 35 1006.6
20260503201506 69 297 8.0 15.0 0.00 0.00 0.00 34 1006.7
20260503200007 69 338 11.0 18.0 0.00 0.00 0.00 33 1007.0
20260503194504 69 335 13.0 21.0 0.00 0.00 0.00 32 1007.0
20260503193002 68 337 12.0 21.0 0.00 0.00 0.00 33 1007.1
20260503191502 68 321 10.0 19.0 0.00 0.00 0.00 33 1007.1
20260503190104 68 328 14.0 25.0 0.00 0.00 0.00 34 1007.2
20260503184600 68 332 15.0 19.0 0.00 0.00 0.00 35 1007.1
20260503183106 68 342 16.0 21.0 0.00 0.00 0.00 35 1007.3
20260503181558 68 327 8.0 21.0 0.00 0.00 0.00 37 1007.5
20260503180106 67 338 12.0 21.0 0.00 0.00 0.00 38 1007.6
20260503174555 67 343 12.0 21.0 0.00 0.00 0.00 34 1007.5
20260503173142 67 347 14.0 21.0 0.00 0.00 0.00 36 1007.6
20260503171553 66 340 15.0 20.0 0.00 0.00 0.00 40 1007.6
20260503090104 53 116 8.0 16.0 0.00 0.00 0.00 56 1007.4
20260503081558 53 170 9.0 18.0 0.00 0.00 0.00 62 1007.9
20260503071543 56 247 11.0 20.0 0.00 0.00 0.00 50 1010.2
20260503054536 57 224 7.0 15.0 0.00 0.00 0.00 44 1011.2
20260503053027 58 231 4.0 13.0 0.00 0.00 0.00 43 1011.2
20260503051524 58 243 6.0 15.0 0.00 0.00 0.00 43 1010.9
20260503050022 58 142 4.0 12.0 0.00 0.00 0.00 43 1010.8
20260503044534 58 252 4.0 11.0 0.00 0.00 0.00 43 1011.2
20260503043017 58 232 5.0 9.0 0.00 0.00 0.00 43 1011.5
20260503041516 58 244 6.0 11.0 0.00 0.00 0.00 44 1011.8
20260503040015 58 190 1.0 8.0 0.00 0.00 0.00 45 1011.7
20260503034514 59 174 2.0 7.0 0.00 0.00 0.00 44 1011.7
20260503033012 59 226 3.0 9.0 0.00 0.00 0.00 44 1011.9
20260503031512 60 241 4.0 7.0 0.00 0.00 0.00 43 1012.1
20260503030015 60 216 1.0 7.0 0.00 0.00 0.00 42 1012.2
20260503024508 61 209 7.0 11.0 0.00 0.00 0.00 40 1012.5
20260503023006 62 223 4.0 13.0 0.00 0.00 0.00 38 1012.6
20260503021505 61 201 6.0 15.0 0.00 0.00 0.00 39 1012.8
20260503020005 61 231 10.0 13.0 0.00 0.00 0.00 40 1012.9
20260503014505 60 199 7.0 11.0 0.00 0.00 0.00 42 1012.9
20260503013003 60 249 6.0 10.0 0.00 0.00 0.00 42 1012.9
20260503011502 61 234 7.0 9.0 0.00 0.00 0.00 40 1012.9
20260503010002 61 229 4.0 6.0 0.00 0.00 0.00 39 1013.0
20260503004600 62 226 4.0 7.0 0.00 0.00 0.00 39 1013.0
20260503003104 62 221 5.0 8.0 0.00 0.00 0.00 37 1013.0
20260503001558 63 214 4.0 7.0 0.00 0.00 0.00 37 1013.4
20260503000110 63 252 5.0 8.0 0.00 0.00 0.00 37 1013.4
20260502234554 64 227 8.0 11.0 0.00 0.00 0.00 36 1013.4
20260502233053 64 241 5.0 8.0 0.00 0.00 0.00 36 1013.7
20260502231615 64 255 5.0 9.0 0.00 0.00 0.00 36 1013.7
20260502230051 64 262 6.0 11.0 0.00 0.00 0.00 35 1013.9
20260502224556 64 260 5.0 12.0 0.00 0.00 0.00 35 1014.3
20260502223047 64 212 5.0 9.0 0.00 0.00 0.00 35 1014.4
20260502221552 64 255 6.0 10.0 0.00 0.00 0.00 34 1014.5
20260502220049 65 276 5.0 11.0 0.00 0.00 0.00 34 1014.6
20260502214547 64 273 6.0 9.0 0.00 0.00 0.00 35 1014.9